Regional Weather Roundup
Issued by NWS Midland/Odessa, TX

Skip options and go directly to product.
Home | Oldest Version | Next Version | Current Version | All | Text Only | Save Text | Print | Product List | Glossary On

Skip product version selection by date and time.   
448
ASUS44 KMAF 221502
RWRMAF
MIDLAND AREA WEATHER ROUNDUP
NATIONAL WEATHER SERVICE MIDLAND TX
1000 AM CDT TUE APR 22 2014

...IN SOUTHWEST TEXAS AND SOUTHEAST NEW MEXICO...

CITY           SKY/WX    TMP DP  RH WIND       PRES   REMARKS
ALPINE         SUNNY     66  51  57 CALM      30.24S
ANDREWS        FAIR      67  51  54 SE9G16    30.17S
ARTESIA        SUNNY     63  50  63 CALM      30.17F
BIG SPRING     SUNNY     69  51  53 SW7       30.18R
CARLSBAD       SUNNY     69  51  52 SE9       30.15S
DRYDEN           N/A     76  63  64 E6        30.09S
FORT STOCKTON  SUNNY     69  58  67 E7        30.13R
GUAD PASS      SUNNY     62  53  72 NE23      30.22R
HOBBS          SUNNY     66  48  52 E15       30.18F
MARFA          SUNNY     66  48  52 SE6       30.22S
MIDLAND AIRPK  SUNNY     69  54  57 SE6       30.15F
MIDLAND INTL   SUNNY     71  53  52 SE10      30.15S
ODESSA           N/A    N/A N/A N/A MISG      30.15S
PECOS          SUNNY     69  58  67 E6        30.12F
PRESIDIO       FAIR      73  55  52 NE12G20   30.09S
SEMINOLE       SUNNY     68  51  54 SE10      30.18S
SNYDER         SUNNY     69  55  60 E7        30.16R
WINK           SUNNY     70  58  65 SE8       30.13S
$$
...OTHER STATIONS IN TEXAS...

CITY           SKY/WX    TMP DP  RH WIND       PRES   REMARKS
ABILENE        SUNNY     70  55  59 N5        30.12S
AMARILLO       CLOUDY    63  44  50 S12       30.20S
AUSTIN         SUNNY     76  64  66 N15       30.03S
BROWNSVILLE    MOSUNNY   77  70  79 CALM      30.01R
CORPUS CHRISTI MOSUNNY   77  67  71 CALM      30.00R
DALLAS FTW     SUNNY     71  61  70 N10       30.08R
DEL RIO        SUNNY     75  61  61 NE6       30.06S
EL PASO        SUNNY     70  47  43 E6        30.11S
HOUSTON INT    CLOUDY    72  66  81 NW5       30.01S
LUBBOCK        PTSUNNY   64  51  62 CALM      30.18S
SAN ANGELO     SUNNY     72  57  59 CALM      30.12R
SAN ANTONIO    MOSUNNY   77  63  61 N9        30.04F
WACO           MOSUNNY   70  65  84 NE6       30.07R
WICHITA FALLS  NOT AVBL
$$
...OTHER LOCATIONS IN NEW MEXICO...

CITY           SKY/WX    TMP DP  RH WIND       PRES   REMARKS
ALAMAGORDO     SUNNY     64  37  36 W3        30.14S
ALBUQUERQUE    MOSUNNY   62  40  44 NW7       30.16S
CANNON AFB     NOT AVBL
CLOVIS         SUNNY     64  52  63 S13       30.24S
HOLLOMAN AFB   NOT AVBL
ROSWELL        SUNNY     67  49  52 S9        30.17S
RUIDOSO        SUNNY     54  43  66 SE7       30.30F
SANTA FE       MOSUNNY   59  40  49 SE20G26   30.20F
TRUTH OR CONSE SUNNY     67  33  28 CALM      30.13S
TUCUMCARI      SUNNY     66  49  54 SW15      30.17F
$$

USA.gov is the U.S. government's official web portal to all federal, state and local government web resources and services.